Wind_Speed
41 41 41 40 40 40 40 40 40 43 42 39 42 46 48 44 41 36 32 21 15 22 37 38 35 30 27 27 26 26 28 31 27 25 25 20 23 24 26 30 28 25 23 21 24
43 45 45 45 44 44 44 44 44 43 46 49 45 43 44 50 50 49 33 30 22 27 29 34 40 32 33 33 32 33 39 38 31 26 27 27 32 28 31 30 34 32 25 20 29
42 43 44 46 46 45 45 45 46 47 48 47 50 49 47 46 53 52 45 42 33 29 30 34 36 38 38 35 36 40 45 37 31 28 35 37 36 34 35 38 33 32 25 21 27
42 43 45 45 46 45 44 44 45 46 46 47 49 50 49 48 51 42 48 46 44 37 37 35 38 38 39 41 37 45 44 38 32 32 40 42 41 36 37 42 34 28 23 23 27
42 42 43 44 45 46 46 46 46 45 46 47 48 50 49 54 56 25 37 42 44 48 44 39 36 38 40 39 37 48 43 40 38 37 36 42 42 39 42 36 31 28 24 23 25
39 41 42 43 42 43 45 46 46 47 47 47 49 50 53 63 50 42 45 47 46 43 43 44 42 37 41 43 40 45 40 39 37 38 41 42 42 39 42 35 32 32 29 25 26
33 33 33 33 33 35 39 42 44 45 47 49 49 50 57 64 45 37 47 45 42 35 37 35 29 33 38 42 41 40 42 40 41 37 45 37 43 44 44 37 36 32 29 25 28
31 31 31 31 31 30 31 29 32 41 46 46 48 51 63 60 50 48 43 33 41 44 37 29 28 33 39 35 33 35 40 39 37 40 38 32 45 46 39 34 32 28 25 26 27
30 30 30 30 30 32 32 30 33 33 35 40 46 48 64 57 51 44 46 46 36 33 46 40 31 37 45 42 38 41 40 39 41 36 35 40 46 47 32 31 29 28 25 23 23
30 28 28 28 29 31 31 32 33 35 36 35 37 43 46 22 24 48 45 45 41 42 36 41 40 42 47 45 43 32 37 43 46 44 38 39 45 42 32 32 25 24 22 23 27
26 27 28 28 27 28 28 30 33 36 37 36 35 33 33 20 21 33 21 44 45 44 47 39 48 65 57 49 44 41 39 43 45 41 37 42 40 39 34 33 27 21 24 24 22
22 23 23 24 25 25 24 24 30 32 39 35 39 43 40 28 40 21 37 30 49 53 46 44 61 55 54 55 50 45 42 48 47 38 36 41 41 41 34 28 25 25 21 17 17
22 23 23 22 22 21 21 22 25 27 32 39 35 43 35 33 49 39 31 34 37 51 54 57 54 50 48 48 46 48 45 47 45 36 38 37 45 41 30 24 27 22 14 13 17
21 21 22 22 21 21 23 22 22 18 21 36 19 7 10 25 46 41 39 38 33 41 50 54 58 27 51 46 42 46 47 43 37 29 24 14 11 28 35 25 28 21 19 17 18
22 25 26 26 24 22 22 18 16 10 5 8 3 4 19 9 16 25 41 41 43 43 42 52 41 54 39 47 44 46 36 35 28 29 28 30 22 31 31 28 28 24 25 23 25
27 30 29 27 24 24 19 13 11 6 8 6 10 13 19 22 14 16 46 41 42 30 45 51 40 38 52 35 33 35 27 29 30 27 19 33 20 25 32 30 19 9 4 10 12
29 29 28 26 22 20 17 12 9 8 7 6 16 25 25 29 13 28 21 51 42 39 40 37 43 37 31 44 27 18 19 3 4 5 7 22 14 35 17 5 9 10 12 8 7
27 28 24 22 19 15 13 11 9 6 16 24 28 28 15 24 6 6 27 32 53 33 30 26 16 38 33 40 40 41 35 14 6 3 5 19 13 35 26 23 12 17 11 10 9
28 24 20 17 14 10 8 10 7 9 13 18 28 19 11 16 21 17 14 16 27 46 14 28 24 13 37 33 33 39 39 36 17 12 4 5 18 34 30 20 9 13 13 13 14
27 21 13 12 10 9 5 8 10 11 17 21 20 11 11 20 18 16 3 1 16 22 44 8 16 37 24 37 35 37 33 29 29 6 3 9 13 17 4 10 9 12 8 10 14
26 16 11 12 14 2 5 7 10 3 9 11 14 16 16 16 13 17 9 1 6 10 34 39 14 10 30 39 44 39 27 23 23 16 5 1 9 19 20 11 12 12 13 11 8
21 11 12 9 9 8 7 7 7 7 5 10 9 7 11 11 11 13 19 23 14 13 15 33 19 18 29 29 35 50 47 36 21 11 20 4 11 9 0 5 4 5 6 14 6
23 13 10 8 7 9 11 5 7 15 9 8 8 8 10 13 11 12 22 25 19 19 6 14 20 13 5 23 23 37 49 46 25 16 36 14 8 4 9 5 10 7 14 11 8
23 18 10 8 11 12 15 8 12 12 3 9 11 9 10 9 9 11 20 19 31 6 7 5 21 23 17 17 28 33 40 47 46 29 17 36 20 21 10 13 14 10 18 11 6
23 16 15 12 10 12 13 16 11 14 14 8 4 5 10 11 11 5 6 16 24 9 6 15 5 20 35 30 13 20 24 32 45 54 34 32 32 33 16 13 8 10 19 12 5
22 19 14 12 16 12 9 11 15 12 15 8 10 11 12 14 13 14 13 13 16 24 16 17 4 12 25 35 35 23 16 25 30 41 46 35 36 28 21 16 11 11 16 12 8
21 19 18 15 14 16 13 13 16 17 12 12 21 20 16 12 13 12 12 12 11 19 26 12 17 12 7 14 25 24 34 23 17 34 39 41 46 32 24 17 19 12 15 13 8
Wind_Direction
274 272 270 268 266 266 266 263 260 258 255 258 258 256 254 253 248 243 231 224 227 234 239 249 256 249 236 239 245 248 236 248 256 260 273 280 287 290 291 287 287 289 285 307 309
276 276 275 273 270 267 266 264 262 260 260 259 260 262 262 255 251 246 239 244 233 229 224 239 249 248 245 244 242 241 243 255 273 275 275 276 276 280 284 282 276 278 281 302 308
276 275 276 276 275 273 269 266 263 262 260 257 257 258 260 261 255 251 244 249 242 233 235 231 238 240 243 242 245 249 248 270 270 274 274 274 274 279 280 278 279 280 283 294 298
274 274 275 275 274 274 273 270 266 262 259 257 255 255 256 258 255 257 249 247 245 240 239 234 236 238 237 246 245 247 253 261 268 271 274 276 279 278 277 283 284 273 282 287 297
275 274 273 273 273 273 272 272 269 266 263 260 257 255 253 251 246 245 248 249 247 242 242 242 242 244 248 252 252 253 260 264 268 269 273 277 279 282 281 285 283 269 277 285 286
279 278 277 275 274 272 270 269 268 267 264 261 258 256 255 251 249 240 242 242 245 247 244 244 245 245 250 254 251 257 262 263 264 267 269 274 278 279 297 295 289 272 280 270 288
284 283 283 281 280 278 274 270 268 265 262 260 258 257 252 249 251 244 241 239 241 240 238 236 226 233 246 249 249 254 258 261 261 265 270 277 278 279 307 294 295 286 280 273 280
290 288 287 286 287 285 283 280 277 267 264 261 258 256 255 254 245 243 246 238 237 238 232 228 226 230 236 242 246 250 255 261 259 259 269 273 275 291 308 298 297 293 294 284 286
296 293 290 287 285 284 284 284 281 277 271 263 259 256 259 262 253 247 241 242 235 236 237 236 228 234 241 239 242 243 249 253 259 260 271 273 283 299 306 302 293 289 287 287 282
307 303 297 293 289 288 285 282 278 275 272 268 262 256 251 255 258 250 241 236 230 231 235 227 223 228 229 222 223 231 242 252 262 275 269 276 283 294 300 293 286 284 282 289 284
308 307 307 306 303 297 292 286 282 278 271 267 262 255 238 241 228 238 242 228 225 223 225 225 222 226 228 229 236 245 252 258 265 268 269 275 281 285 295 287 283 270 280 285 266
319 314 309 306 305 306 306 297 291 286 281 267 266 268 258 246 238 224 225 230 217 220 217 221 229 232 234 237 240 242 246 256 261 259 267 274 282 284 289 274 266 275 294 271 255
320 315 311 309 306 306 301 291 291 294 293 289 284 271 272 255 245 217 218 223 219 217 217 221 234 229 230 234 234 237 242 251 255 264 265 278 284 289 286 272 259 272 290 272 263
323 320 315 312 311 305 291 296 295 301 307 312 297 323 260 256 247 217 216 217 218 220 219 228 224 236 228 233 234 236 241 248 258 265 271 275 284 277 284 274 237 251 266 268 289
321 320 316 310 307 296 295 293 283 293 313 311 2 357 357 310 248 225 205 211 218 218 210 224 225 221 227 234 235 240 234 243 260 271 273 273 273 285 288 272 245 250 273 272 280
323 320 316 311 311 296 293 281 247 225 246 275 309 294 332 325 282 214 209 205 210 214 227 232 232 234 229 229 228 236 233 252 258 271 261 270 256 280 276 269 263 264 289 288 279
323 321 319 315 308 295 286 264 208 216 240 280 315 313 342 322 313 224 207 206 204 199 217 224 224 226 227 224 215 216 217 246 279 241 236 266 232 262 270 160 304 295 273 257 281
329 324 319 311 308 293 271 245 220 249 255 286 300 301 329 328 313 261 224 215 209 205 205 205 209 215 221 229 225 221 214 191 203 226 258 237 212 250 251 260 280 301 277 245 236
332 326 319 313 316 318 273 222 235 263 280 304 295 317 321 324 318 330 227 220 222 208 218 206 224 202 229 228 218 213 209 222 238 261 285 233 244 257 255 263 275 302 237 252 215
341 331 328 343 342 333 274 246 246 275 279 279 294 298 319 327 322 309 9 334 231 231 213 232 214 229 218 214 227 217 215 207 219 204 225 256 255 232 236 221 265 300 238 243 201
349 342 341 333 333 295 320 287 293 312 302 304 287 269 287 321 326 305 282 22 122 182 203 216 214 213 210 208 201 200 204 206 211 225 170 280 259 245 240 240 272 287 289 196 196
357 359 355 13 29 11 3 344 329 351 323 297 306 297 288 306 325 302 291 301 30 42 189 202 216 218 212 219 218 212 204 204 199 191 223 244 258 246 315 169 212 278 229 182 191
2 354 343 4 19 354 346 23 352 344 349 304 287 271 273 301 307 296 304 304 299 10 94 199 208 215 175 202 204 214 215 208 203 197 212 219 239 292 226 263 276 266 190 183 183
353 4 344 330 346 338 341 359 350 7 30 330 310 293 288 285 279 281 304 308 313 350 58 247 211 217 209 208 202 206 213 215 217 228 212 219 226 230 266 298 295 195 188 180 167
354 353 1 341 344 320 314 319 335 337 349 334 305 285 324 327 325 288 293 311 316 312 61 8 235 234 228 219 180 216 221 220 214 224 222 233 233 240 257 296 256 176 193 190 198
353 357 350 348 358 324 331 323 322 321 330 352 326 304 319 312 313 319 338 340 342 308 346 5 344 293 230 225 225 238 225 240 226 227 231 238 251 240 254 268 204 221 201 201 189
350 349 348 2 352 344 357 339 330 323 318 288 309 304 298 302 292 294 296 316 326 325 318 334 340 335 223 220 234 254 237 234 239 231 227 227 236 242 253 235 206 221 218 211 198
Height
3122 3122 3123 3124 3124 3123 3124 3125 3125 3126 3127 3127 3128 3129 3130 3131 3134 3134 3140 3147 3147 3148 3150 3155 3155 3154 3152 3152 3153 3154 3155 3151 3149 3151 3151 3153 3153 3154 3151 3148 3149 3149 3147 3147 3146
3115 3114 3113 3113 3113 3115 3115 3115 3116 3116 3117 3117 3119 3119 3121 3122 3124 3123 3141 3137 3141 3144 3145 3148 3148 3148 3146 3147 3147 3147 3144 3145 3148 3148 3146 3149 3146 3147 3145 3145 3143 3143 3144 3142 3140
3107 3106 3104 3103 3103 3103 3104 3105 3106 3106 3107 3108 3109 3109 3112 3112 3114 3118 3127 3130 3134 3138 3139 3141 3141 3141 3140 3141 3142 3138 3132 3140 3143 3144 3140 3140 3140 3141 3138 3136 3138 3137 3137 3136 3134
3100 3098 3096 3094 3093 3092 3092 3094 3095 3096 3096 3096 3098 3099 3102 3103 3104 3106 3116 3120 3123 3129 3132 3133 3131 3132 3133 3132 3137 3130 3129 3135 3137 3138 3135 3133 3133 3134 3133 3129 3131 3130 3130 3130 3129
3090 3089 3087 3086 3084 3083 3083 3083 3083 3084 3085 3085 3088 3089 3092 3089 3087 3104 3108 3110 3112 3117 3122 3124 3124 3126 3127 3128 3130 3121 3126 3129 3130 3130 3130 3127 3126 3126 3123 3124 3125 3125 3125 3125 3124
3081 3079 3077 3076 3075 3075 3073 3072 3072 3073 3074 3075 3076 3077 3077 3066 3087 3097 3097 3102 3102 3106 3110 3114 3118 3121 3119 3119 3121 3118 3120 3121 3122 3124 3120 3121 3120 3122 3117 3119 3118 3119 3119 3119 3118
3072 3069 3067 3066 3065 3064 3063 3063 3063 3062 3062 3065 3066 3066 3061 3054 3079 3084 3085 3092 3096 3099 3103 3108 3109 3111 3112 3111 3112 3112 3111 3113 3114 3117 3111 3118 3110 3112 3113 3113 3111 3111 3112 3112 3112
3065 3063 3060 3058 3057 3056 3054 3054 3053 3051 3051 3052 3053 3054 3040 3051 3068 3074 3081 3085 3088 3092 3095 3098 3099 3102 3101 3104 3104 3105 3104 3103 3110 3108 3109 3112 3099 3106 3109 3105 3103 3104 3104 3105 3105
3058 3056 3054 3052 3050 3048 3046 3047 3043 3042 3041 3040 3041 3042 3031 3043 3053 3064 3067 3070 3082 3082 3087 3094 3093 3093 3094 3095 3098 3094 3090 3095 3099 3106 3107 3104 3096 3101 3102 3099 3097 3096 3097 3098 3097
3049 3047 3045 3044 3042 3040 3039 3038 3036 3033 3032 3032 3031 3034 3033 3037 3042 3049 3053 3059 3068 3074 3077 3079 3083 3081 3080 3081 3071 3083 3087 3091 3089 3102 3102 3096 3090 3093 3095 3093 3092 3092 3092 3092 3092
3044 3041 3039 3036 3034 3032 3032 3031 3028 3025 3024 3026 3024 3020 3025 3029 3033 3041 3043 3047 3054 3061 3062 3069 3072 3054 3066 3073 3078 3085 3086 3084 3089 3095 3096 3089 3085 3086 3089 3086 3086 3088 3088 3086 3086
3041 3038 3035 3033 3030 3027 3025 3022 3018 3018 3010 3017 3016 3011 3017 3025 3020 3028 3032 3036 3038 3041 3054 3062 3042 3058 3066 3071 3074 3076 3079 3078 3081 3088 3089 3083 3079 3080 3081 3079 3081 3082 3081 3081 3081
3038 3034 3031 3029 3026 3024 3020 3018 3015 3012 3006 3004 3007 3003 3009 3012 3005 3021 3025 3028 3030 3035 3037 3038 3038 3055 3058 3061 3066 3069 3072 3073 3077 3084 3081 3077 3073 3073 3074 3073 3074 3078 3077 3076 3077
3034 3030 3027 3025 3024 3020 3016 3015 3012 3010 3007 3000 2994 2997 2998 2995 2988 3011 3015 3023 3024 3025 3034 3036 3045 3048 3051 3053 3061 3062 3066 3071 3076 3080 3077 3078 3069 3069 3068 3066 3069 3072 3072 3072 3072
3031 3027 3024 3019 3019 3017 3015 3012 3011 3013 3011 3001 2997 2995 2993 2993 2993 2994 3007 3009 3012 3018 3027 3017 3031 3039 3042 3040 3053 3054 3064 3068 3071 3072 3072 3072 3072 3059 3063 3060 3062 3066 3067 3066 3066
3027 3023 3019 3016 3013 3009 3009 3009 3010 3014 3006 2998 2996 2992 2993 2989 2986 2986 2989 3003 3009 3015 3018 3021 3027 3033 3035 3045 3050 3056 3062 3064 3065 3066 3062 3064 3071 3052 3055 3054 3058 3062 3062 3061 3061
3023 3018 3013 3009 3008 3005 3004 3006 3009 3004 2999 2997 2992 2991 2990 2984 2978 2981 2983 2988 2993 3002 3004 3013 3019 3025 3033 3041 3046 3052 3059 3064 3063 3063 3060 3057 3061 3043 3049 3050 3055 3056 3057 3058 3059
3019 3013 3009 3005 3002 2999 3000 3002 3001 2998 2997 2994 2990 2990 2991 2984 2979 2977 2978 2982 2990 2998 3002 3007 3014 3016 3022 3028 3035 3043 3051 3052 3062 3060 3053 3048 3047 3032 3044 3049 3051 3052 3053 3055 3056
3016 3010 3005 3002 2999 2997 2998 2998 2997 2997 2996 2993 2989 2988 2988 2987 2986 2979 2978 2984 2989 2992 3000 3001 3007 3012 3016 3022 3032 3035 3037 3048 3052 3050 3050 3044 3037 3036 3040 3045 3047 3048 3050 3052 3053
3012 3007 3003 3000 2997 2996 2996 2995 2995 2995 2994 2992 2991 2990 2987 2984 2983 2982 2978 2980 2982 2986 2994 2997 3002 3004 3012 3019 3021 3025 3034 3044 3048 3048 3050 3040 3036 3034 3037 3042 3044 3046 3047 3049 3051
3010 3005 3002 3000 2996 2996 2996 2995 2993 2993 2992 2990 2988 2987 2986 2984 2981 2980 2977 2977 2974 2975 2983 2993 2997 2999 3003 2998 3009 3020 3026 3031 3036 3039 3041 3045 3033 3032 3036 3040 3041 3044 3045 3047 3050
3010 3006 3003 3001 3001 2998 2996 2994 2993 2991 2990 2987 2985 2984 2985 2983 2980 2978 2976 2976 2975 2973 2976 2984 2989 2994 2993 2997 3003 3008 3013 3020 3024 3028 3034 3034 3030 3030 3033 3037 3039 3041 3043 3047 3048
3011 3006 3003 3001 3000 2997 2996 2994 2993 2990 2987 2986 2984 2984 2983 2982 2980 2976 2974 2974 2973 2973 2975 2979 2982 2987 2992 2998 2999 2999 3007 3016 3021 3026 3027 3035 3027 3030 3032 3036 3038 3039 3042 3046 3047
3011 3008 3003 3001 2999 2997 2994 2993 2991 2990 2987 2985 2983 2981 2980 2980 2979 2974 2973 2972 2970 2971 2972 2973 2973 2975 2977 2983 2990 2994 3001 3009 3018 3021 3023 3017 3024 3028 3030 3033 3035 3036 3042 3045 3046
3012 3008 3004 3001 2998 2996 2993 2992 2990 2988 2987 2983 2981 2980 2979 2978 2977 2973 2972 2970 2969 2969 2971 2972 2970 2971 2973 2982 2987 2994 2998 3004 3008 3012 3019 3017 3022 3025 3031 3032 3035 3036 3040 3044 3045
3012 3008 3005 3001 2998 2994 2993 2991 2989 2987 2985 2983 2980 2978 2978 2976 2975 2972 2971 2969 2969 2969 2970 2972 2971 2969 2971 2979 2982 2989 2994 2999 3001 3008 3014 3019 3017 3023 3028 3031 3034 3037 3040 3042 3044
3012 3008 3004 3000 2995 2993 2991 2989 2987 2985 2982 2980 2978 2975 2974 2975 2973 2972 2971 2971 2970 2971 2970 2972 2971 2968 2970 2977 2983 2987 2987 2994 2999 3002 3007 3013 3008 3020 3025 3029 3032 3036 3038 3040 3043